Location: *
(43.7000°S, 168.7000°W)
Time: 14:53:03
(UTC+00:00)

Cosmos 1898 Rocket - Pass Details

Date: 07 July 2020
Orbit: 754 x 783 km, 74.0° (Epoch: 03 August)

Event Time Altitude Azimuth Distance (km) Brightness Sun altitude
Exits shadow 17:10:10 - 195° (SSW) 2,758 6.1 -17.0°
Reaches altitude 10° 17:11:15 10° 192° (SSW) 2,351 5.8 -16.8°
Maximum altitude 17:16:30 54° 114° (ESE) 951 4.2 -15.9°
Drops below altitude 10° 17:21:43 10° 37° (NE) 2,340 6.8 -15.0°
Sets 17:24:09 0° 32° (NNE) 3,263 7.6 -14.6°
